Theta_e
348 348 347 347 346 347 348 350 349 348 347 347 346 346 344 344 343 343 342 343 342 338 334 335 337 336 342 340 341 341 342 343 343 343 344 344 344 344 344 344 344 344 345 346 346 346 346 345 345 345 348 346 347 336 338 340 342 344 344 344 345 346
347 347 347 347 347 347 347 348 344 344 344 344 345 344 341 337 343 334 342 340 334 338 332 330 332 342 337 340 340 342 343 343 343 343 343 344 343 344 343 343 344 345 345 347 347 341 341 344 343 342 347 347 338 337 339 340 341 342 343 344 345 347
346 347 347 347 347 347 346 344 343 341 343 345 344 343 337 340 335 336 337 337 338 335 332 331 334 340 339 343 340 342 343 343 344 343 343 343 343 343 344 344 345 346 346 347 343 337 336 335 334 341 344 341 335 338 339 339 339 340 341 343 343 348
346 346 346 346 346 345 343 342 341 341 340 339 337 340 336 337 338 337 338 336 336 337 336 333 343 344 344 340 339 342 344 344 343 343 343 343 344 344 345 345 346 346 346 343 337 335 336 335 332 331 336 336 338 339 338 337 337 337 338 343 343 347
345 345 346 346 345 344 342 341 340 340 338 336 335 336 336 336 337 337 338 338 337 339 336 333 336 337 337 336 332 333 335 333 334 332 344 333 332 336 336 334 334 338 334 336 336 335 333 333 334 336 338 336 339 338 338 337 337 336 336 338 341 345
345 345 345 345 344 344 342 340 339 339 337 335 335 335 335 335 335 336 337 339 340 339 336 334 335 335 335 334 333 332 333 332 330 331 337 334 332 332 333 334 334 334 334 333 334 335 336 340 335 335 336 336 338 337 336 335 335 335 335 336 340 343
344 344 344 345 344 343 340 340 340 339 337 335 334 334 334 335 335 335 337 340 340 338 337 336 334 334 334 333 332 332 333 333 332 332 337 333 332 335 335 337 335 336 335 336 337 336 337 337 335 336 335 336 338 337 335 334 334 333 333 335 339 341
344 344 344 345 342 341 340 340 339 342 339 337 336 334 333 335 336 336 338 341 343 339 338 336 336 337 337 336 335 336 337 336 335 335 337 337 336 336 337 338 336 337 337 336 336 336 337 339 335 335 336 335 337 336 334 333 333 332 331 332 335 338
344 344 344 344 342 341 341 340 340 339 337 340 335 333 334 336 336 338 340 343 343 339 337 337 336 336 338 336 335 336 335 334 333 334 335 336 336 334 334 337 338 337 335 335 334 335 337 337 334 333 334 335 336 335 334 332 331 330 329 329 330 333
344 344 344 344 341 341 341 340 340 339 337 339 335 333 334 335 337 340 341 341 341 339 338 337 336 335 336 335 335 336 336 335 335 334 334 334 335 335 335 335 337 336 335 333 333 335 336 335 335 335 334 334 335 335 333 331 330 328 327 326 327 329
344 345 344 343 341 340 341 340 340 339 337 336 335 335 335 336 337 340 341 340 339 340 337 336 336 335 334 334 334 333 332 334 333 332 334 334 335 336 335 334 334 333 333 332 333 333 331 331 332 332 333 334 335 335 333 331 329 328 325 323 323 323
344 345 343 343 342 340 340 340 340 339 337 337 336 334 335 337 340 340 340 339 338 338 338 336 336 335 335 334 333 332 332 333 332 334 334 334 335 336 336 336 336 336 333 333 331 332 332 327 323 324 326 330 334 333 332 330 328 325 323 322 320 320
344 344 343 342 341 341 341 340 339 338 338 338 336 335 335 336 338 340 340 339 339 338 338 336 335 336 338 334 333 331 331 331 331 331 334 335 336 335 335 332 330 332 331 331 331 329 328 323 322 321 322 324 330 332 332 329 325 323 322 321 320 319
342 342 342 343 341 340 340 339 339 337 337 337 335 335 336 336 340 340 340 339 339 339 338 336 335 335 334 333 332 331 331 331 330 332 334 336 333 332 332 331 331 329 335 331 329 328 321 319 318 319 319 320 322 325 327 326 324 322 321 320 319 318
342 341 343 342 341 339 339 339 338 335 336 335 335 334 336 338 340 340 341 339 340 340 339 337 336 336 334 333 332 332 334 333 332 334 332 332 332 331 330 329 329 328 328 330 329 326 319 317 316 316 316 317 317 318 320 321 322 322 321 320 319 317
341 340 342 341 340 339 339 338 337 339 335 335 334 335 336 338 339 340 341 340 340 341 339 338 337 336 334 333 332 332 333 332 332 332 330 331 332 330 328 329 328 327 327 327 324 321 319 316 316 315 315 315 315 316 313 314 314 314 313 313 313 313
339 339 340 340 339 338 338 337 337 337 335 335 334 335 336 338 339 339 339 340 341 343 339 338 337 336 334 333 332 333 332 333 333 332 330 329 330 329 329 331 327 328 327 324 321 318 316 315 314 313 313 313 313 314 311 311 310 310 311 308 309 310
339 339 340 339 338 338 337 337 337 336 337 335 334 335 336 339 338 338 339 340 341 341 339 338 337 336 335 334 334 334 334 333 333 331 329 329 328 328 328 329 326 325 326 324 319 316 315 314 314 313 312 312 312 311 311 312 314 316 307 307 307 307
339 338 339 338 338 338 337 336 336 335 335 334 335 334 338 338 338 339 339 340 340 339 339 336 337 337 335 336 334 333 334 332 333 331 327 328 328 327 326 325 326 326 326 323 318 316 315 315 314 313 312 311 311 310 312 313 310 309 310 308 309 309
338 339 339 338 338 337 335 334 333 333 333 334 334 336 338 338 338 338 340 340 338 338 337 336 335 335 335 334 333 333 333 332 330 328 325 325 324 324 325 325 323 325 322 322 320 317 316 315 313 312 313 311 312 312 311 309 308 308 309 307 307 307
337 339 338 337 336 335 333 332 333 333 332 332 334 336 337 337 337 338 339 338 337 336 335 334 335 334 333 336 332 330 329 329 328 327 325 324 324 324 324 323 323 324 321 318 316 316 315 314 311 309 310 309 308 310 314 308 307 306 305 305 305 306
337 338 338 337 336 336 334 334 333 332 331 331 334 335 334 336 336 338 338 337 336 335 334 333 334 332 333 332 330 328 326 326 326 326 326 325 324 330 323 324 321 318 320 317 315 317 317 314 311 307 306 305 306 305 310 305 306 305 305 305 305 305
337 337 337 338 337 335 333 334 333 332 333 331 333 336 336 336 337 337 336 336 336 334 333 333 332 333 332 331 329 326 326 325 325 328 323 323 323 322 321 321 319 319 318 318 318 319 317 315 311 309 309 306 302 302 305 303 305 305 305 305 305 305
336 337 337 338 337 336 336 334 334 334 334 334 333 336 336 335 335 334 334 336 335 333 333 332 332 332 331 328 326 325 325 324 324 323 321 321 320 321 319 320 321 320 321 317 315 317 320 317 313 310 305 304 302 301 299 301 300 303 304 304 304 304
337 337 337 338 337 336 336 334 334 333 333 333 333 333 332 331 332 333 333 332 333 332 332 332 332 330 329 326 325 324 323 323 322 321 321 320 320 321 319 320 322 319 319 318 315 311 312 316 314 314 311 307 304 303 302 301 300 299 302 301 302 304
337 337 337 337 337 336 335 333 331 330 330 330 329 330 329 329 328 330 330 329 330 331 330 330 328 327 326 325 323 323 322 321 321 321 322 319 318 316 316 316 316 317 315 317 317 310 309 314 316 317 314 313 310 305 304 301 297 293 303 305 303 304
337 337 338 337 337 337 334 333 332 332 332 331 329 329 329 330 330 328 328 327 328 327 328 327 326 325 324 324 322 322 321 320 320 321 323 317 315 315 315 315 316 315 315 316 314 311 310 309 307 309 312 311 315 311 305 300 296 296 295 298 300 300
337 337 338 338 337 337 335 333 332 331 331 331 330 329 329 329 328 328 326 326 326 325 326 326 324 324 324 324 322 321 321 319 319 319 320 315 314 314 315 315 314 313 314 313 312 313 309 307 308 306 313 308 312 307 304 304 303 299 296 295 296 299
336 337 337 337 337 336 335 333 332 331 330 330 330 329 329 328 327 327 325 324 324 324 324 323 323 323 322 322 324 320 320 318 317 316 317 314 313 313 312 311 310 310 311 310 309 308 308 306 305 305 304 304 304 303 302 303 305 303 298 295 295 295
335 336 337 337 337 336 335 334 331 331 330 329 329 329 328 327 326 325 324 322 322 323 322 321 321 322 321 321 318 317 317 317 316 316 316 312 312 312 311 310 309 309 309 309 307 308 307 304 305 303 304 305 303 301 300 301 300 300 299 297 296 296
335 336 336 336 336 335 334 333 332 331 330 329 328 328 326 325 325 323 322 322 322 323 321 320 319 319 318 316 314 316 314 314 315 318 314 311 311 311 310 310 310 309 308 307 306 306 306 304 304 303 302 302 301 301 299 298 298 299 298 296 296 297
334 335 335 335 335 335 334 333 332 331 330 330 329 328 326 325 324 323 322 321 321 319 319 318 317 316 315 314 315 314 315 313 313 310 310 310 310 310 310 310 309 308 307 306 306 306 304 303 302 302 301 301 301 301 301 300 300 299 299 297 296 296
333 334 335 334 334 334 334 333 332 331 331 330 329 328 327 325 324 323 322 321 320 318 317 316 315 314 313 313 313 311 310 310 309 310 309 309 309 309 309 308 308 307 306 305 304 304 303 302 302 301 301 300 300 301 300 299 300 299 298 297 297 293
333 334 334 334 334 333 333 333 332 332 331 331 329 328 327 326 324 323 323 322 320 318 317 316 314 313 313 314 312 312 310 309 309 309 309 308 308 308 308 307 307 306 305 304 304 303 303 302 301 301 301 300 300 300 299 300 298 298 297 296 295 295
333 334 334 333 333 332 333 333 333 333 332 331 329 328 327 326 324 323 323 322 320 318 317 316 315 314 315 312 311 309 309 308 308 309 309 309 309 308 308 308 307 306 305 304 303 304 302 302 302 300 300 300 301 299 300 299 299 299 298 297 296 295
334 334 334 333 333 333 333 334 333 332 331 330 329 328 327 326 325 324 323 323 320 318 318 317 316 315 314 311 309 309 309 308 308 308 308 307 307 307 306 306 305 304 304 306 303 302 301 301 301 300 300 299 300 299 300 300 300 299 298 298 298 295
334 334 334 334 334 334 333 333 333 332 331 329 328 326 325 325 324 323 323 322 320 319 318 318 317 315 312 310 310 308 307 307 307 307 307 307 306 306 305 305 304 303 303 302 303 301 300 300 300 299 299 299 298 298 298 299 299 300 300 298 297 296
Wind_Speed
8 8 7 6 6 7 10 15 12 14 14 13 12 12 12 12 11 10 9 9 9 4 4 4 5 4 9 5 8 8 8 7 6 6 5 4 4 3 4 4 5 5 6 7 7 9 9 8 7 6 4 2 4 5 4 5 5 5 5 4 4 4
7 9 7 6 5 5 6 9 6 6 6 8 9 10 7 5 7 4 9 6 4 3 3 3 3 6 2 4 6 9 8 8 7 6 5 5 4 4 3 4 4 5 6 5 8 5 4 6 7 6 4 2 4 5 4 5 5 5 5 4 5 7
9 8 8 7 5 5 5 5 6 5 5 6 6 6 4 5 4 4 3 3 4 3 4 3 4 4 3 6 4 8 8 8 7 7 6 5 4 4 4 4 5 5 5 6 4 3 4 4 3 5 2 4 5 5 5 5 5 5 5 5 4 11
10 9 8 6 6 5 5 5 5 5 5 5 4 5 4 4 4 4 4 4 4 4 4 4 7 11 9 4 4 7 7 8 7 7 6 4 4 4 5 5 6 6 5 4 3 3 2 3 2 2 1 5 6 5 5 5 5 4 4 5 6 14
8 8 8 7 8 6 5 5 5 5 5 5 4 5 5 3 4 4 4 4 4 3 4 4 4 3 5 4 3 3 3 3 1 1 3 1 2 2 2 3 3 3 3 3 3 2 2 3 2 1 4 5 6 6 5 5 5 4 4 5 7 14
9 9 8 7 7 7 8 6 6 5 5 5 5 5 5 4 4 4 4 4 4 4 4 5 4 3 4 4 4 4 4 3 3 3 1 3 3 2 2 3 2 2 2 1 2 2 1 0 4 5 4 5 6 6 5 5 4 4 4 5 7 13
9 9 9 7 7 6 7 6 6 6 6 6 5 5 6 5 5 5 5 5 5 4 4 5 4 5 5 4 4 4 4 4 4 3 2 2 3 3 2 2 2 1 1 0 0 2 1 1 3 4 3 4 5 6 5 5 4 4 5 5 7 14
10 10 8 8 8 7 6 7 7 6 7 7 6 6 6 6 5 5 5 5 5 5 6 5 5 5 4 4 4 4 4 4 3 2 2 1 1 1 1 0 1 0 1 0 0 2 1 0 1 5 4 3 5 5 5 5 5 5 4 5 5 11
10 11 9 9 9 7 7 7 6 6 7 7 6 6 6 5 5 5 4 6 6 6 5 6 6 5 5 4 3 3 4 3 2 2 2 2 2 1 1 2 2 1 2 1 1 4 2 1 1 4 5 4 5 6 6 5 5 5 4 5 5 8
11 11 9 9 8 8 8 8 7 7 7 7 7 7 5 5 5 5 5 6 6 6 6 6 5 5 5 5 4 4 4 3 3 2 3 3 2 2 1 2 3 2 2 0 1 2 1 2 2 1 5 5 6 6 6 5 5 5 4 5 5 6
12 11 9 9 8 8 8 8 8 7 6 7 7 6 5 5 5 6 6 6 5 5 6 5 5 5 4 4 4 4 4 4 3 2 1 2 1 2 2 2 1 1 1 2 3 3 1 0 1 2 5 6 7 7 6 5 5 5 5 4 5 4
12 11 10 10 9 9 8 8 7 6 7 8 6 6 6 5 6 6 6 6 6 5 5 5 5 4 4 4 4 4 4 4 3 1 2 2 2 4 3 2 1 1 2 2 1 0 0 4 6 5 6 7 7 7 6 6 6 5 5 4 4 4
12 11 11 10 9 9 8 7 7 7 7 7 6 6 6 7 6 6 6 6 6 5 5 6 5 5 5 4 4 4 3 2 3 2 3 3 3 4 3 2 2 2 2 3 3 5 5 5 6 6 7 6 7 7 6 6 5 5 5 4 4 4
11 12 12 10 8 8 8 7 7 7 6 7 6 6 7 6 6 6 6 6 6 5 5 4 5 4 4 4 4 4 2 2 1 2 2 2 4 4 3 2 2 2 3 4 3 5 6 7 6 7 7 7 7 6 6 6 5 5 5 4 4 4
11 12 12 10 9 8 8 7 7 6 6 7 7 7 6 6 6 6 6 5 5 5 5 5 4 5 4 4 4 4 3 3 3 3 3 2 3 3 3 4 3 3 1 4 5 4 5 7 7 8 7 7 7 6 5 5 5 4 4 3 3 3
12 13 12 11 9 8 8 7 7 6 6 5 7 6 6 6 6 6 6 6 5 5 5 5 5 5 5 4 4 4 4 3 3 2 2 2 2 4 3 4 2 3 5 5 6 4 5 7 7 8 6 7 6 6 6 5 4 4 3 4 4 3
14 14 12 12 10 8 8 7 6 6 6 5 7 6 6 6 6 6 6 6 5 5 5 5 5 4 4 4 4 4 4 4 3 2 2 1 1 2 3 4 2 1 6 5 6 6 5 6 7 7 6 7 5 6 5 6 5 5 4 5 5 4
12 12 11 11 10 9 8 7 6 6 5 6 5 5 6 7 6 6 5 6 5 5 5 5 5 4 5 4 3 4 3 3 3 2 2 2 2 1 1 5 4 1 6 7 6 7 6 5 6 6 6 6 5 5 4 4 3 3 5 5 5 5
12 11 11 10 10 9 7 6 6 6 6 6 5 4 7 6 6 6 6 6 5 5 5 5 5 5 6 4 4 3 4 3 2 2 2 3 4 3 3 3 5 5 5 6 7 6 7 6 6 6 6 5 5 4 4 4 4 5 4 4 4 4
11 11 9 9 9 8 7 7 7 5 5 5 5 5 6 7 6 6 6 6 5 5 5 5 5 5 5 5 5 4 3 2 3 4 4 5 4 4 4 5 4 6 8 6 5 6 6 8 7 7 5 6 5 5 5 4 4 4 3 4 4 4
11 11 10 10 9 9 8 7 6 8 7 6 6 6 6 6 6 6 6 6 6 5 5 5 4 5 5 5 4 3 2 3 3 3 4 3 4 4 3 4 3 4 7 7 3 3 3 7 8 5 5 5 5 4 4 4 4 3 3 3 2 3
11 11 11 11 9 9 7 7 7 8 4 5 6 7 6 6 6 6 6 6 5 5 6 5 4 4 5 5 4 3 3 4 3 3 3 2 3 3 3 3 3 4 2 7 4 4 6 5 3 4 5 2 4 4 3 4 4 3 3 3 3 3
12 11 10 11 10 9 5 6 7 5 6 3 2 4 6 5 6 7 6 6 6 6 6 5 4 4 5 4 4 4 4 4 4 4 4 2 2 3 3 3 4 6 5 2 3 3 4 1 5 3 3 6 0 1 2 2 2 2 2 2 2 3
13 12 11 10 10 9 8 6 5 6 4 4 5 5 5 5 5 5 6 5 5 6 6 6 5 4 3 4 4 4 4 3 3 3 4 3 3 2 2 2 3 4 7 6 3 3 2 1 5 8 2 1 3 4 0 4 2 1 1 0 2 2
13 12 11 11 11 9 8 7 5 4 4 6 5 5 6 5 6 6 6 5 6 5 6 6 5 4 4 5 4 4 4 4 4 3 3 4 4 4 3 3 4 4 5 7 5 2 0 2 7 3 8 5 3 0 4 3 3 2 0 0 0 0
11 11 11 12 12 11 10 10 9 9 9 7 8 9 10 10 7 7 7 4 5 6 6 5 5 5 5 5 4 4 4 4 4 4 5 4 4 3 3 3 3 6 5 4 7 4 2 0 5 3 3 5 7 5 5 2 4 3 0 1 2 1
12 11 11 12 12 11 10 10 11 11 9 9 9 5 5 6 7 5 5 6 6 5 6 7 5 5 4 4 4 3 3 3 3 3 3 5 4 4 3 3 3 4 5 5 5 5 6 4 2 1 0 1 1 1 7 7 5 3 1 2 1 2
12 12 11 12 13 12 11 10 10 10 8 9 9 8 7 6 5 6 6 6 6 5 6 6 7 5 5 5 4 4 4 3 4 3 3 5 5 3 5 3 3 4 4 5 7 7 5 5 7 3 0 1 2 4 3 2 5 7 5 4 3 1
13 12 12 14 12 11 11 10 10 9 8 6 8 7 6 6 6 6 6 5 5 5 5 5 6 6 5 5 4 5 4 4 5 3 4 5 3 4 5 5 4 4 5 3 3 4 6 6 4 6 3 2 4 3 3 2 3 3 3 3 1 3
14 12 12 14 13 12 11 11 10 10 11 9 7 7 7 8 7 6 7 5 5 5 6 5 4 5 5 4 5 4 5 6 6 5 4 5 4 4 4 4 4 5 4 5 3 4 5 4 3 2 2 6 4 2 2 2 2 3 3 2 5 5
14 12 13 14 14 14 11 11 11 12 12 12 11 11 9 8 7 6 7 6 6 5 5 5 5 3 4 4 5 5 6 5 5 5 5 5 4 5 4 5 4 5 5 6 6 6 5 3 4 4 3 4 6 7 6 4 4 2 3 2 3 1
13 13 13 13 14 13 11 11 11 12 13 13 13 11 12 12 10 10 8 8 5 5 5 5 5 5 4 4 5 5 5 5 5 5 5 4 4 5 5 5 5 5 5 4 5 6 6 6 5 5 4 4 6 5 5 5 4 4 5 4 6 4
15 14 14 14 15 14 12 12 12 12 12 12 13 12 12 11 10 10 9 8 7 7 6 6 5 6 4 5 6 6 6 6 5 4 5 5 4 5 5 5 5 5 5 5 5 6 6 5 5 7 6 3 5 5 5 2 4 5 4 5 7 5
16 15 14 14 15 14 14 12 12 12 11 12 12 12 10 11 10 9 9 9 8 8 8 8 7 7 6 6 5 5 5 5 5 5 5 5 5 4 5 6 5 6 5 4 5 6 7 5 5 5 5 6 5 6 4 3 3 5 5 5 4 6
15 15 15 15 13 14 13 13 12 11 11 10 11 10 9 9 10 10 8 8 7 6 7 7 8 6 6 7 6 6 6 6 5 5 5 6 5 5 4 5 5 5 5 4 6 7 6 7 7 6 5 6 6 5 4 3 5 4 4 4 5 5
17 16 16 15 14 14 13 11 11 12 12 11 9 9 8 8 8 9 9 9 8 7 7 7 6 7 6 7 7 7 6 6 6 6 6 6 6 6 5 6 5 5 6 3 7 7 6 6 7 6 6 4 6 4 4 5 5 4 4 5 5 3
15 14 16 16 15 14 13 13 12 11 11 11 11 11 10 10 10 8 8 8 8 7 7 7 7 6 7 6 7 7 7 6 6 6 6 6 6 6 5 6 6 5 6 4 6 6 5 7 5 6 5 5 6 6 4 4 4 5 4 4 4 4
Wind_Direction
155 153 150 148 152 156 161 158 157 162 167 168 169 168 166 169 173 176 174 174 171 160 156 164 167 171 172 161 169 175 182 186 189 192 206 218 239 260 290 312 319 325 325 323 320 319 320 320 323 323 317 21 17 63 53 69 68 63 55 46 38 52
159 159 153 153 154 160 165 159 151 162 166 169 169 166 164 166 169 167 172 173 156 159 155 152 163 178 162 165 176 184 190 195 199 209 217 228 239 258 279 298 308 309 308 312 308 319 316 317 321 320 311 153 62 82 74 74 74 70 63 47 53 58
162 158 157 153 155 166 157 142 153 161 168 167 171 163 163 172 157 172 167 163 169 164 160 172 177 183 166 175 183 191 200 202 207 213 221 232 246 263 273 281 282 282 283 287 297 296 307 309 315 312 342 99 88 92 88 80 76 70 65 63 57 65
164 161 158 157 158 163 152 150 163 169 169 168 169 159 178 177 175 178 171 172 179 172 168 176 195 186 183 180 199 203 207 213 215 218 221 233 255 267 270 278 272 269 273 278 276 286 295 281 291 283 95 105 102 100 90 85 82 72 63 68 68 74
164 163 161 161 164 165 156 159 175 177 171 171 170 171 186 192 187 188 176 184 189 178 167 179 222 201 166 175 196 215 224 224 252 259 249 242 245 254 287 284 282 278 261 260 276 273 276 308 311 175 111 113 106 101 95 93 93 82 70 66 72 73
165 167 167 165 167 168 164 172 181 183 176 180 171 184 189 201 198 194 186 193 198 189 164 184 209 181 175 177 185 199 209 216 216 228 224 228 238 240 246 247 241 232 247 230 238 283 356 333 59 70 97 115 117 105 103 96 85 83 67 65 71 70
169 169 169 166 162 171 178 183 182 182 175 188 182 185 199 204 204 192 193 193 194 197 173 178 187 172 180 174 182 192 207 211 212 217 228 193 210 211 229 192 183 208 207 307 234 80 60 73 86 92 102 123 115 116 107 96 90 77 65 65 74 74
171 171 170 165 168 180 183 185 190 186 186 189 181 195 197 202 203 199 193 195 191 176 161 162 169 162 171 167 179 187 195 198 177 156 174 146 151 95 100 176 255 317 67 308 249 62 346 262 154 117 124 121 115 108 102 96 84 72 68 68 72 79
173 174 169 166 175 183 184 189 188 188 189 190 190 200 194 190 199 209 188 173 161 160 153 155 160 164 154 166 172 177 168 183 168 167 142 100 120 134 23 3 352 58 102 249 330 59 325 4 352 111 130 133 115 109 104 93 88 82 68 64 69 81
175 175 170 168 179 183 189 190 189 194 191 188 199 201 184 185 193 175 174 167 166 157 161 163 166 171 159 168 170 178 165 180 178 168 143 147 172 115 61 25 26 57 75 281 347 87 49 47 325 85 129 137 121 116 108 107 98 91 79 67 66 75
176 175 169 173 179 188 190 193 191 192 186 195 199 190 188 189 176 176 164 162 160 158 156 162 167 167 169 163 164 176 185 180 170 183 150 146 144 104 71 58 39 52 82 61 21 21 359 338 291 135 127 142 124 115 113 109 105 97 92 79 71 71
175 174 171 175 181 186 194 196 191 184 192 202 189 182 186 184 174 172 154 162 164 161 160 168 164 164 169 163 164 180 183 180 171 146 117 153 117 86 87 71 54 55 32 91 74 339 357 50 76 84 99 121 123 119 115 111 106 103 98 91 83 75
173 174 175 176 181 188 195 196 190 189 195 197 189 178 178 182 166 158 159 163 166 162 167 165 169 164 163 166 161 164 181 193 151 133 130 140 115 91 81 85 71 91 83 46 53 50 55 52 73 70 80 88 105 107 108 108 112 115 111 108 99 86
173 174 178 177 178 184 193 195 192 186 186 185 184 176 179 165 155 157 159 170 162 162 166 169 160 161 155 159 155 166 171 183 150 153 144 133 110 112 124 115 98 90 95 98 98 98 93 78 66 70 72 82 85 95 105 110 124 124 121 117 110 94
172 176 176 179 177 183 187 185 186 176 177 175 174 177 159 149 154 157 158 171 165 164 164 162 162 159 169 158 153 159 164 178 173 164 143 160 137 123 135 122 115 92 97 112 100 91 92 87 86 75 73 80 89 97 99 113 119 121 124 124 109 103
172 175 178 176 177 179 181 177 180 173 171 178 172 165 148 154 159 157 163 167 170 162 161 167 160 157 161 164 158 163 170 167 174 152 157 158 133 153 148 122 140 149 105 105 106 79 69 93 87 85 78 82 90 97 105 109 113 112 114 111 113 115
172 175 174 175 173 176 173 169 173 169 174 186 168 160 146 151 158 160 163 167 164 162 158 160 156 157 157 162 164 166 171 165 164 165 166 161 192 209 155 125 135 163 115 115 103 102 75 88 92 89 87 86 85 95 100 116 119 123 114 108 111 114
170 170 170 171 172 173 169 163 166 171 175 180 179 154 146 154 161 160 162 165 161 154 154 150 148 151 154 164 167 170 164 158 158 133 166 187 208 144 200 128 119 45 111 116 115 113 108 96 93 92 84 85 84 86 96 96 99 93 101 104 105 114
165 166 166 164 165 167 157 157 161 166 178 180 177 139 151 157 157 156 166 162 151 150 148 145 149 151 151 157 158 165 168 162 147 155 115 119 116 128 130 97 118 89 73 115 128 124 122 111 90 84 81 71 73 70 72 79 88 94 95 112 114 115
165 163 158 158 160 162 149 158 162 168 179 184 162 143 159 158 151 157 164 155 150 150 150 152 154 150 147 157 158 162 179 162 155 141 133 110 115 128 125 105 101 101 95 89 89 120 122 106 84 73 73 60 56 55 55 71 76 91 104 104 112 118
165 162 159 161 166 164 158 157 164 178 183 178 161 157 156 154 155 160 158 155 152 150 149 153 155 148 156 160 156 151 142 160 160 141 123 144 138 123 124 124 105 95 116 116 101 123 125 115 111 68 45 48 39 34 51 58 64 63 68 60 69 102
161 166 166 165 165 167 166 168 167 180 169 158 156 155 155 162 158 158 158 157 152 149 154 157 155 153 156 151 146 138 143 151 145 124 128 156 138 106 92 90 110 71 75 137 139 169 176 116 42 140 128 67 11 359 25 45 51 26 42 51 85 95
167 167 168 165 164 167 155 157 160 174 165 141 127 148 152 156 150 155 162 157 153 153 151 157 156 154 148 153 152 141 154 146 133 125 108 82 82 100 130 133 129 127 114 95 117 178 199 84 135 99 102 88 56 57 331 11 7 29 15 46 66 78
169 168 165 170 166 158 151 151 156 157 155 138 154 139 130 135 141 143 157 159 159 152 154 158 161 157 143 139 145 141 133 124 124 119 129 129 123 152 120 127 131 129 137 132 141 197 257 148 130 128 84 133 180 115 338 272 216 278 6 346 78 105
168 169 165 164 161 152 141 139 137 108 107 90 87 124 128 146 163 161 149 159 169 162 157 156 157 146 136 139 137 129 127 136 126 131 114 123 157 183 176 165 151 140 157 150 163 156 322 161 165 179 137 105 59 24 217 227 122 276 1 122 300 220
165 165 165 163 160 158 158 156 156 156 160 158 159 164 170 165 167 167 171 163 154 164 156 149 143 140 139 133 129 132 133 135 132 129 125 121 126 102 106 99 148 154 155 167 151 143 128 225 193 185 177 158 163 174 179 197 114 226 337 234 280 312
166 166 164 163 162 161 162 166 171 172 171 173 166 173 149 155 158 157 147 159 162 153 150 143 141 141 137 129 125 132 134 123 123 130 116 110 103 115 116 113 118 117 155 151 140 155 166 167 83 314 167 110 131 113 147 136 198 94 184 305 340 282
165 165 167 164 166 168 169 169 170 171 171 171 170 164 161 155 148 147 150 159 154 149 147 141 140 142 141 139 132 137 138 122 106 112 116 118 125 122 102 80 89 113 122 154 164 158 176 177 162 210 42 70 67 88 117 77 146 161 152 164 257 308
166 165 167 167 166 170 170 170 170 166 166 170 159 155 147 145 150 155 148 157 151 143 137 136 140 143 144 141 138 144 139 120 114 112 115 115 112 116 118 120 106 98 116 102 132 150 149 185 169 179 116 51 76 72 65 50 101 93 134 119 233 187
167 168 167 168 167 170 170 167 169 170 163 161 156 149 153 156 158 160 156 166 155 139 139 133 137 138 134 123 118 126 130 130 129 128 120 124 118 106 104 99 109 115 117 105 88 119 135 142 147 121 140 149 127 96 60 51 53 81 60 95 163 198
170 165 167 168 170 174 169 172 170 169 167 162 163 158 157 160 158 161 164 169 162 149 140 142 132 119 118 120 114 116 123 128 128 126 124 122 124 124 119 110 105 95 100 122 120 107 99 96 106 99 94 132 152 161 168 161 183 176 146 130 80 132
169 169 169 168 172 176 172 173 168 169 168 167 165 167 167 167 171 169 167 166 160 132 133 133 126 120 117 117 111 111 116 116 117 118 118 119 115 113 112 109 103 107 106 101 111 108 115 115 108 98 88 96 102 108 101 123 167 157 138 170 135 155
174 170 171 168 174 176 173 173 173 171 169 168 170 170 169 166 169 168 168 164 160 152 146 139 146 135 143 131 123 118 121 121 117 121 123 109 104 108 112 109 113 109 115 123 128 126 122 128 126 118 118 91 103 96 103 110 119 123 85 109 125 125
176 173 172 172 172 173 175 174 171 171 170 169 171 170 171 168 172 170 171 169 167 161 158 155 149 149 152 135 125 130 127 125 130 130 124 118 114 113 115 115 117 116 116 119 114 116 116 115 103 109 117 108 93 101 99 103 122 114 136 113 103 134
173 177 176 176 171 171 173 173 171 171 170 169 168 171 170 169 168 170 172 166 160 153 150 154 151 148 144 132 132 127 128 128 133 130 125 120 115 111 111 107 109 114 111 119 118 116 117 120 116 117 106 110 112 94 107 119 113 111 127 131 144 165
177 175 176 175 176 172 172 171 169 171 170 167 167 167 165 168 172 170 168 166 162 158 152 146 146 140 146 138 137 133 129 131 134 133 131 129 128 124 124 119 117 118 117 123 118 115 124 116 118 118 114 116 100 109 119 111 101 111 104 122 120 121
178 176 177 177 173 174 172 171 173 168 166 167 168 169 170 169 168 166 161 161 158 157 149 147 144 142 142 142 140 139 135 135 136 137 132 132 131 132 133 128 130 125 122 125 115 124 128 118 123 121 117 120 120 123 118 108 97 105 114 101 100 105